CZ-6A DEB

Satellite information

Favourite Embed

Satellite Type and Status

DEBRISIN ORBIT

Key statistics

Satellite CZ-6A DEB at a glance.

Uptime

1078

Days in orbit

Revolutions

≈ 14.4

Per day

Orbit

SSO

Sun Synchronous Orbit

Inclination

98.7

Latest

Satellite identification and parameters

Extended collection of information and parameters for CZ-6A DEB.

Object identification

Identified? True

Debris? True

Object name: CZ-6A DEB

International designator: 2022-151LA

Object number (NORAD): 54550

Object ID (CCSDS): 54550

Country: PEOPLES REPUBLIC OF CHINA (PRC)

Current information (Y/N): Y

RCS size: SMALL

Orbital parameters

Period: 100.231 minutes

Inclination: 98.6911 deg

SMA: 7147.606 km

Apoapsis: 815.785 km

Periapsis: 723.157 km

RAAN: 327.8311 deg

Eccentricy: 0.0064796

Argument of periapsis: 293.2271 deg

Mean anomaly: 66.21 deg

Mean motion: 14.36685969 rev/day

Mean motion (dot): 0.00001669 rev/day2

B* drag term: 0.00056835 1/REarth

Two-line elements (TLE)

Creation date: Oct. 23, 2025, 10:16 p.m.

Reference frame: TEME

Reference center: EARTH

Epoch: Oct. 23, 2025, 3:26 p.m. UTC

TLE line 0: 0 CZ-6A DEB

TLE line 1: 1 54550U 22151LA 25296.64336193 .00001669 00000-0 56835-3 0 9991

TLE line 2: 2 54550 98.6911 327.8311 0064796 293.2271 66.2100 14.36685969154055

Live tracking on map

Real-time ground track for satellite CZ-6A DEB.

In-orbit conjunctions

A list of the most updated potential collisions computed for object CZ-6A DEB.

Target Orbit TCA Probability of collision Miss distance Type
COSMOS 1375 DEB LEO 2025-09-19 17:58:52 0.0001818611 117.0 (m) DEBRIS
CZ-6A DEB SSO 2024-11-12 17:43:12 0.0005465689 675.0 (m) DEBRIS

Associated space launch

Chinese satellite reported for atmospheric/ocean/environmental/spatial parameter research purposes, details TBD.

CZ-6A DEB was lifted into orbit during the mission ‘Long March 6A | Yunhai 3’, on board a Long March 6A space rocket.

The launch took place on Nov. 11, 2022, 10:52 p.m. from Launch Complex 9A.

For more information about the launch, click the button.

Launch to space Long March 6A | Yunhai 3
Long March 6A | Yunhai 3

Agency: N/A

Status: Launch Successful

Launch date: Nov. 11, 2022, 10:52 p.m. UTC

Rocket: Long March 6A

Launch pad: Launch Complex 9A

Location: Taiyuan Satellite Launch Center, People's Republic of China

...

Latest news about this satellite

There are no fresh news available about this satellite. Check back as we update our databases every day.


Newsletter sign-up

Weekly statistics, charts and insights to help you stay on top of the space industry.